Location: ??
(34.9170°N, 135.5016°E)
Time: 11:21:41
(UTC+00:00)

Explorer 7 - Pass Details

Date: 27 February 2021
Orbit: 484 x 677 km, 50.3° (Epoch: 18 April)

Event Time Altitude Azimuth Distance (km) Brightness Sun altitude
Rises 04:39:31 0° 196° (SSW) 2,952 11.3 42.0°
Reaches altitude 10° 04:42:16 10° 182° (S) 2,017 10.6 41.7°
Maximum altitude 04:45:54 23° 131° (SE) 1,320 9.1 41.3°
Drops below altitude 10° 04:49:25 10° 78° (ENE) 1,934 9.4 40.9°
Sets 04:51:59 0° 64° (ENE) 2,800 10.0 40.6°
